Location: Igon
(43.1667°N, 0.2333°W)
Time: 10:07:07
(UTC+00:00)

ATLAS CENTAUR R/B - Pass Details

Date: 29 November 2020
Orbit: 477 x 668 km, 64.7° (Epoch: 12 January)

Event Time Altitude Azimuth Distance (km) Brightness Sun altitude
Exits shadow 04:32:33 18° 41° (NE) 1,274 3.5 -28.3°
Maximum altitude 04:32:38 18° 43° (NE) 1,274 3.5 -28.3°
Drops below altitude 10° 04:35:24 10° 89° (E) 1,740 4.8 -27.8°
Sets 04:38:09 0° 108° (ESE) 2,661 6.0 -27.3°
